This demonstration page uses our WeatherBlox Daily Observations layout. Learn more.

Left ArrowRight Arrow

Hourly Observations for May 6, 2020

Temp ( °F °C ) Dew Point ( °F °C ) Humidity (%) Winds ( mph kmh ) Pressure ( in mb ) Visibility ( mi km ) Precip ( " mm )
12:51 am 00:51 Clear 75 23.9 25 -3.9 15 15 ESE 7 11 29.84 1011 10 16.0934 0 0
1:51 am 01:51 Clear 66 18.9 26 -3.3 22 22 S 7 11 29.85 1011 10 16.0934 0 0
2:51 am 02:51 Clear 68 20 29 -1.7 23 23 E 10 17 29.84 1011 10 16.0934 0 0
3:51 am 03:51 Clear 73 22.8 34 1.1 24 24 E 9 15 29.85 1011 10 16.0934 0 0
4:51 am 04:51 Clear 71 21.7 33 0.6 25 25 ESE 9 15 29.85 1011 10 16.0934 0 0
5:51 am 05:51 Sunny 70 21.1 30 -1.1 23 23 ESE 14 22 29.88 1012 10 16.0934 0 0
6:51 am 06:51 Sunny 74 23.3 30 -1.1 20 20 ESE 14 22 29.9 1013 10 16.0934 0 0
7:51 am 07:51 Sunny 76 24.4 33 0.6 21 21 SE 13 20 29.93 1014 10 16.0934 0 0
8:51 am 08:51 Sunny 82 27.8 34 1.1 18 18 SE 8 13 29.92 1013 10 16.0934 0 0
9:51 am 09:51 Sunny 85 29.4 36 2.2 17 17 SSE 9 15 29.92 1013 10 16.0934 0 0
10:51 am 10:51 Sunny 89 31.7 37 2.8 16 16 SE 9 15 29.9 1013 10 16.0934 0 0
11:51 am 11:51 Sunny 92 33.3 37 2.8 14 14 VRB 7 11 29.87 1012 10 16.0934 0 0
12:51 pm 12:51 Sunny 95 35 35 1.7 12 12 VRB 3 6 29.83 1010 10 16.0934 0 0
1:51 pm 13:51 Sunny 98 36.7 31 -0.6 9 9 Calm 29.8 1009 10 16.0934 0 0
2:51 pm 14:51 Sunny 100 37.8 29 -1.7 8 8 ENE 7 11 29.76 1008 10 16.0934 0 0
3:51 pm 15:51 Sunny 101 38.3 28 -2.2 8 8 Calm 29.72 1007 10 16.0934 0 0
4:51 pm 16:51 Sunny 100 37.8 28 -2.2 8 8 VRB 3 6 29.71 1006 10 16.0934 0 0
5:51 pm 17:51 Sunny 100 37.8 28 -2.2 8 8 WNW 10 17 29.7 1006 10 16.0934 0 0
6:51 pm 18:51 Sunny 95 35 21 -6.1 7 7 NW 13 20 29.71 1006 10 16.0934 0 0
7:51 pm 19:51 Clear 90 32.2 19 -7.2 7 7 NW 13 20 29.74 1007 10 16.0934 0 0
8:51 pm 20:51 Clear 87 30.6 16 -8.9 7 7 NW 12 19 29.75 1008 10 16.0934 0 0
9:51 pm 21:51 Clear 81 27.2 18 -7.8 9 9 NW 10 17 29.78 1008 10 16.0934 0 0
10:51 pm 22:51 Clear 75 23.9 18 -7.8 11 11 NW 8 13 29.78 1009 10 16.0934 0 0
11:51 pm 23:51 Clear 75 23.9 20 -6.7 12 12 NW 9 15 29.78 1009 10 16.0934 0 0

Powered by AerisWeather